Other Surface Observations
Issued by NWS Charleston, SC

Home | Current Version | Previous Version | Text Only | Print | Product List | Glossary On
Versions: 1 2 3 4 5 6 7 8 9 10 11 12 13 14 15 16 17 18 19 20 21 22 23 24 25 26 27 28 29 30 31 32 33 34 35 36 37 38 39 40 41 42 43 44 45 46 47 48 49 50
000
SXUS52 KCHS 291613
OSOCHS

MARINE OBSERVATIONS
NATIONAL WEATHER SERVICE CHARLESTON SC
1200 PM EDT FRI JUL 29 2016

...DOWNTOWN CHARLESTON AND HARBOR...

CITY           SKY/WX    TMP DP  RH WIND       PRES   REMARKS
WATERFRONT PRK   N/A     91  73  55 W8        29.96S HX  99

...LAKE MOULTRIE...

CITY           SKY/WX    TMP DP  RH WIND       PRES   REMARKS
PINOPOLIS        N/A     88  72  58 W15       29.89F HX  94

...LAKE AND SUPPLEMENTAL COASTAL OBSERVATIONS...

STATION/POSITION TIME  TEMP    WIND        PRES    WAVE   SWELL
                       AIR SEA DIR/SP/G            HT/PER HT/PER/DIR
                 (UTC) (F)     (DEG/KT/KT) (MB)    (FT/S) (FT/S/D)
FORT PULASKI     1500   87 87  280/ 12/ 15 1016.7S
SAPELO ISLAND    1500   90     300/  6     1017.0S
WINYAH BAY       1445   88     260/ 12     1014.0
LAKE MURRAY      1500   85     260/ 10/ 12 1014.6R
ACE BASIN NERRS  NOT AVBL


...C-MAN AND BUOY OBSERVATIONS...

STATION/POSITION TIME  TEMP    WIND        PRES    WAVE   SWELL
                       AIR SEA DIR/SP/G            HT/PER HT/PER/DIR
                 (UTC) (F)     (DEG/KT/KT) (MB)    (FT/S) (FT/S/D)
BUOY 41004       1550   85 85  250/ 10/ 12 1015.0F   4/ 6   3/220/ 6
BUOY 41008       1550   86 87  250/  4/  6 1016.7F   2/ 3   2/160/ 4
FOLLY BEACH CMAN 1600   92     260/  8/ 13 1015.2F
CAPERS NS BUOY   1508   87 85  270/ 12/ 17 1015.1F
FRIPP NS BUOY    1508   87 87  290/ 10/ 14 1015.4S
5E ST. MARYS GA  1501      86                N/A     2/ 5


STATION/POSITION TIME  TEMP    WIND        PRES    WAVE   SWELL
                       AIR SEA DIR/SP/G            HT/PER HT/PER/DIR
                 (UTC) (F)     (DEG/KT/KT) (MB)    (FT/S) (FT/S/D)
FRYING PAN BUOY  1600   86 85  230/ 14/ 16 1014.0F
BUOY 41025       1550   85 85  230/ 16/ 19 1012.6F   3/ 6   2/220/14
CAPE LOOKOUT NC  1600   87     230/ 12/ 18 1012.5F
BUOY 41002       1550   85 85  240/ 10/ 12 1016.5F   3/ 6   3/250/ 6
BUOY 41010       1520   85 86  260/ 10/ 12 1018.1R
ST AUGUSTINE FL  1600   84 85   80/  6/  7 1018.5F

$$




USA.gov is the U.S. government's official web portal to all federal, state and local government web resources and services.